User: anonymous   Login
Location: Muenchen
(48.1800°N, 11.5800°E)
Time: 00:26:38
(UTC+02:00)
Language:

ISS - Orbit

View from above orbital plane
View from above orbital plane
View from above satellite
View from above satellite

Ground track
Ground track

The orbit data is extracted from the following two-line orbital elements,

1 25544U 98067A   15214.48486072  .00005223  00000-0  83535-4 0  9992
2 25544 051.6428 212.8575 0001236 036.1087 065.8957 15.54968466955244
Epoch (UTC): 02 August 2015 11:38:11
Eccentricity: 0.0001236
inclination: 51.6428°
perigee height: 401 km
apogee height: 403 km
right ascension of ascending node: 212.8575°
argument of perigee: 36.1087°
revolutions per day: 15.54968466
mean anomaly at epoch: 65.8957°
orbit number at epoch: 95524

The dashed part of the orbit path shows where the satellite is in the earth's shadow,  

DLR